TimeEDT,TemperatureF,Dew PointF,Humidity,Sea Level PressureIn,VisibilityMPH,Wind Direction,Wind SpeedMPH,Gust SpeedMPH,PrecipitationIn,Events,Conditions,WindDirDegrees,DateUTC
12:54 AM,59.0,55.0,87,30.20,10.0,ESE,3.5,-,N/A,,Clear,120,2013-04-18 04:54:00
1:54 AM,60.1,55.9,86,30.19,10.0,ESE,3.5,-,N/A,,Clear,120,2013-04-18 05:54:00
2:54 AM,55.9,53.1,90,30.17,10.0,SE,4.6,-,N/A,,Clear,140,2013-04-18 06:54:00
3:54 AM,59.0,55.9,90,30.17,10.0,Calm,Calm,-,N/A,,Clear,0,2013-04-18 07:54:00
4:54 AM,57.9,55.0,90,30.18,10.0,Calm,Calm,-,N/A,,Clear,0,2013-04-18 08:54:00
5:54 AM,57.0,54.0,89,30.18,5.0,ESE,4.6,-,N/A,,Clear,120,2013-04-18 09:54:00
6:54 AM,55.0,52.0,89,30.20,6.0,ESE,3.5,-,N/A,,Scattered Clouds,120,2013-04-18 10:54:00
7:54 AM,62.1,59.0,90,30.21,9.0,Calm,Calm,-,N/A,,Scattered Clouds,0,2013-04-18 11:54:00
8:54 AM,70.0,61.0,73,30.21,10.0,SSE,6.9,-,N/A,,Scattered Clouds,150,2013-04-18 12:54:00
9:54 AM,73.0,59.0,61,30.22,10.0,SE,11.5,-,N/A,,Mostly Cloudy,140,2013-04-18 13:54:00
10:54 AM,73.9,57.9,57,30.22,10.0,South,11.5,-,N/A,,Mostly Cloudy,170,2013-04-18 14:54:00
11:54 AM,73.9,57.9,57,30.22,10.0,South,8.1,-,N/A,,Mostly Cloudy,170,2013-04-18 15:54:00
12:54 PM,75.9,59.0,56,30.20,10.0,South,12.7,-,N/A,,Mostly Cloudy,180,2013-04-18 16:54:00
1:21 PM,75.2,60.8,61,30.21,10.0,South,12.7,18.4,N/A,,Mostly Cloudy,170,2013-04-18 17:21:00
1:54 PM,75.2,59.0,57,30.19,10.0,SSE,12.7,19.6,N/A,,Mostly Cloudy,150,2013-04-18 17:54:00
2:54 PM,77.0,60.8,57,30.18,10.0,SSE,16.1,-,N/A,,Mostly Cloudy,160,2013-04-18 18:54:00
3:54 PM,73.9,57.9,57,30.16,10.0,South,13.8,19.6,N/A,,Partly Cloudy,170,2013-04-18 19:54:00
4:54 PM,75.0,57.9,55,30.15,10.0,South,12.7,18.4,N/A,,Partly Cloudy,180,2013-04-18 20:54:00
5:54 PM,73.9,59.0,59,30.14,10.0,SSE,13.8,19.6,N/A,,Scattered Clouds,150,2013-04-18 21:54:00
6:54 PM,72.0,59.0,64,30.12,10.0,SSE,10.4,-,N/A,,Mostly Cloudy,150,2013-04-18 22:54:00
7:54 PM,69.1,59.0,70,30.12,10.0,SSE,5.8,-,N/A,,Scattered Clouds,150,2013-04-18 23:54:00
8:54 PM,68.0,60.1,76,30.13,10.0,SE,5.8,-,N/A,,Overcast,130,2013-04-19 00:54:00
9:54 PM,66.9,59.0,76,30.14,10.0,SE,4.6,-,N/A,,Partly Cloudy,140,2013-04-19 01:54:00
10:54 PM,66.0,61.0,84,30.12,10.0,ESE,5.8,-,N/A,,Overcast,120,2013-04-19 02:54:00
11:54 PM,68.0,62.1,81,30.11,10.0,SSE,4.6,-,N/A,,Overcast,150,2013-04-19 03:54:00